EW4711 Weather Reports


Display with metric or nautical units.
time (UTC)temp
F
wind
direction
speed
MPH
gust
MPH
rain 1hr
in
rain 24hr
in
rain mn
in
humidity
%
barometer
mb
20260901104604 71 348 1.0 2.0 0.00 0.64 0.01 100 1012.2
20260901104104 71 348 0.0 1.0 0.00 0.64 0.01 100 1012.2
20260901103603 71 348 1.0 2.0 0.00 0.65 0.01 100 1012.2
20260901103104 71 348 1.0 2.0 0.00 0.66 0.01 100 1012.1
20260901102603 70 348 0.0 3.0 0.00 0.66 0.01 100 1012.0
20260901102103 70 331 1.0 3.0 0.00 0.66 0.01 100 1011.9
20260901101604 70 328 2.0 3.0 0.00 0.66 0.01 100 1011.9
20260901101104 70 315 2.0 3.0 0.00 0.66 0.01 100 1011.8
20260901100603 70 338 1.0 3.0 0.00 0.66 0.01 100 1011.8
20260901100103 70 278 0.0 1.0 0.00 0.66 0.01 100 1011.6
20260901095604 70 285 0.0 3.0 0.00 0.66 0.01 100 1011.5
20260901095103 70 229 1.0 3.0 0.00 0.66 0.01 100 1011.5
20260901094104 70 253 0.0 1.0 0.00 0.66 0.01 100 1011.5
20260901093603 70 213 0.0 2.0 0.00 0.66 0.01 100 1011.5
20260901093104 70 245 1.0 2.0 0.00 0.66 0.01 100 1011.5
20260901092104 70 275 1.0 3.0 0.00 0.66 0.01 100 1011.5
20260901091603 69 251 0.0 1.0 0.00 0.66 0.01 99 1011.4
20260901090603 69 243 1.0 2.0 0.00 0.67 0.01 99 1011.4
20260901085103 70 251 0.0 1.0 0.01 0.68 0.01 99 1011.4
20260901084604 70 196 1.0 2.0 0.01 0.68 0.01 99 1011.4
20260901084104 69 292 1.0 2.0 0.01 0.68 0.01 100 1011.4
20260901083603 69 255 1.0 3.0 0.01 0.68 0.01 99 1011.4
20260901082604 69 245 1.0 3.0 0.01 0.68 0.01 100 1011.4
20260901082105 69 230 1.0 3.0 0.01 0.68 0.01 99 1011.3
20260901081603 69 260 1.0 3.0 0.01 0.68 0.01 100 1011.4
20260901080604 69 231 1.0 2.0 0.01 0.68 0.01 100 1011.3
20260901075604 69 269 1.0 5.0 0.01 0.69 0.01 100 1011.5
20260901075104 69 266 1.0 5.0 0.00 0.68 0.00 100 1011.5
20260901074604 69 235 1.0 3.0 0.00 0.68 0.00 100 1011.6
20260901074104 69 242 1.0 2.0 0.00 0.68 0.00 100 1011.7
20260901073604 69 246 1.0 3.0 0.00 0.68 0.00 100 1011.6
20260901073103 69 232 2.0 6.0 0.00 0.69 0.00 100 1011.6
20260901072604 69 240 2.0 5.0 0.00 0.69 0.00 100 1011.7
20260901072103 69 236 2.0 5.0 0.00 0.69 0.00 100 1011.8
20260901071604 69 233 1.0 3.0 0.00 0.69 0.00 100 1011.9
20260901071103 69 247 2.0 3.0 0.00 0.69 0.00 100 1012.0
20260901070603 69 244 1.0 3.0 0.00 0.69 0.00 99 1012.0
20260901065604 69 229 2.0 5.0 0.00 0.69 0.00 99 1012.1
20260901065103 69 229 2.0 3.0 0.00 0.70 0.00 99 1012.1
20260901064103 69 270 0.0 3.0 0.00 0.70 0.00 99 1012.3
20260901063604 69 224 0.0 3.0 0.00 0.70 0.00 99 1012.4
20260901063104 69 241 1.0 3.0 0.00 0.70 0.00 99 1012.5
20260901062603 69 248 2.0 3.0 0.00 0.70 0.00 99 1012.5
20260901062103 69 212 1.0 3.0 0.00 0.70 0.00 99 1012.6
20260901061104 69 245 0.0 3.0 0.00 0.71 0.00 99 1012.8
20260901060603 69 228 1.0 5.0 0.00 0.71 0.00 99 1012.9
20260901055103 69 250 2.0 7.0 0.00 0.71 0.00 99 1013.0
20260901054604 69 240 1.0 3.0 0.00 0.72 0.00 99 1013.0
20260901053104 69 249 1.0 3.0 0.00 0.73 0.00 99 1013.2
20260901052104 69 253 1.0 3.0 0.00 0.73 0.00 99 1013.2
20260901051603 69 235 1.0 3.0 0.00 0.73 0.00 99 1013.2
20260901051104 70 223 1.0 3.0 0.00 0.73 0.00 99 1013.2
20260901050604 70 226 1.0 3.0 0.00 0.73 0.00 99 1013.3
20260901045603 70 230 1.0 3.0 0.00 0.73 0.00 99 1013.4
20260901045103 70 220 1.0 3.0 0.00 0.73 0.00 99 1013.5
20260901044604 70 264 1.0 2.0 0.00 0.73 0.00 99 1013.6
20260901044104 70 255 1.0 3.0 0.00 0.73 0.00 99 1013.7
20260901043604 70 235 1.0 2.0 0.00 0.73 0.00 99 1013.7
20260901043104 70 235 0.0 1.0 0.00 0.73 0.00 99 1013.8
20260901042603 70 235 1.0 2.0 0.00 0.73 0.00 99 1013.9
20260901042104 70 235 0.0 2.0 0.00 0.73 0.00 99 1013.9
20260901041103 70 235 0.0 1.0 0.00 0.73 0.00 99 1013.9
20260901040604 70 235 0.0 1.0 0.00 0.73 0.00 99 1014.0
20260901040104 70 235 0.0 0.0 0.00 0.73 0.00 99 1014.0
20260901035604 70 235 0.0 2.0 0.00 0.73 0.73 99 1014.1
20260901034604 70 235 0.0 2.0 0.00 0.73 0.73 99 1014.3
20260901034104 70 235 0.0 2.0 0.00 0.73 0.73 99 1014.3
20260901033603 70 235 0.0 1.0 0.00 0.73 0.73 99 1014.4
20260901032603 70 235 0.0 0.0 0.00 0.73 0.73 99 1014.3
20260901032104 70 235 0.0 1.0 0.00 0.73 0.73 99 1014.3
20260901031604 70 235 0.0 2.0 0.00 0.73 0.73 99 1014.3
20260901031104 70 235 0.0 1.0 0.00 0.73 0.73 99 1014.4
20260901030603 70 235 0.0 1.0 0.00 0.73 0.73 99 1014.4
20260901030104 70 235 0.0 0.0 0.00 0.73 0.73 99 1014.5
20260901025604 70 235 0.0 1.0 0.00 0.73 0.73 99 1014.5
20260901025104 70 235 0.0 2.0 0.00 0.73 0.73 99 1014.5
20260901024103 71 235 0.0 1.0 0.00 0.73 0.73 99 1014.8
20260901023605 71 235 1.0 2.0 0.00 0.73 0.73 99 1014.8
20260901023104 71 235 0.0 1.0 0.04 0.73 0.73 99 1014.9
20260901022603 71 235 1.0 2.0 0.05 0.73 0.73 99 1015.0
20260901022104 71 235 0.0 1.0 0.06 0.73 0.73 99 1015.0
20260901021603 71 235 0.0 1.0 0.06 0.73 0.73 99 1015.0
20260901021104 71 235 0.0 1.0 0.06 0.73 0.73 99 1015.0
20260901020603 71 237 0.0 2.0 0.06 0.73 0.73 99 1014.8
20260901020104 71 245 0.0 1.0 0.06 0.73 0.73 99 1014.8
20260901015604 71 245 1.0 2.0 0.06 0.73 0.73 99 1014.9
20260901015104 71 235 0.0 2.0 0.06 0.73 0.73 99 1014.8
20260901014103 71 219 0.0 1.0 0.06 0.73 0.73 99 1015.0
20260901013604 71 219 1.0 3.0 0.06 0.73 0.73 99 1015.0
20260901013104 71 253 1.0 3.0 0.02 0.69 0.69 99 1015.2
20260901012104 71 247 1.0 2.0 0.00 0.67 0.67 99 1015.3
20260901011104 71 272 0.0 1.0 0.00 0.67 0.67 99 1015.3
20260901010603 71 282 0.0 2.0 0.00 0.67 0.67 99 1015.2
20260901010103 71 225 0.0 2.0 0.00 0.67 0.67 99 1015.0
20260901005104 71 235 1.0 2.0 0.00 0.67 0.67 99 1014.8
20260901004604 71 267 1.0 3.0 0.00 0.67 0.67 99 1014.9
20260901004103 71 237 1.0 3.0 0.00 0.67 0.67 99 1014.8
20260901003604 71 289 1.0 2.0 0.00 0.67 0.67 99 1014.8
20260901002603 71 231 1.0 2.0 0.00 0.67 0.67 99 1014.5
20260901002104 72 235 0.0 1.0 0.00 0.67 0.67 99 1014.6
20260901001604 72 240 1.0 3.0 0.00 0.67 0.67 99 1014.6
20260901001104 72 242 0.0 3.0 0.00 0.67 0.67 99 1014.6
20260901000604 72 235 0.0 1.0 0.00 0.67 0.67 99 1014.5
20260901000104 72 235 1.0 3.0 0.00 0.67 0.67 99 1014.5
20260831235604 72 234 1.0 3.0 0.00 0.67 0.67 99 1014.5
20260831235103 72 243 0.0 2.0 0.00 0.67 0.67 99 1014.6
20260831234604 72 262 0.0 1.0 0.00 0.67 0.67 99 1014.6
20260831234103 72 235 0.0 2.0 0.00 0.67 0.67 99 1014.5
20260831233604 73 235 0.0 2.0 0.00 0.67 0.67 99 1014.5
20260831233104 73 235 0.0 0.0 0.00 0.67 0.67 99 1014.5
20260831232104 73 235 0.0 1.0 0.00 0.67 0.67 99 1014.4
20260831231604 73 235 0.0 1.0 0.00 0.67 0.67 99 1014.5
20260831231102 73 235 0.0 2.0 0.00 0.67 0.67 99 1014.6
20260831230602 73 258 0.0 1.0 0.00 0.67 0.67 99 1014.7
20260831225602 73 293 0.0 3.0 0.00 0.67 0.67 99 1014.9
20260831224102 73 276 0.0 3.0 0.00 0.67 0.67 99 1015.0
20260831223602 73 272 1.0 3.0 0.00 0.67 0.67 99 1015.0
20260831223103 73 322 0.0 2.0 0.00 0.67 0.67 100 1015.0
20260831222603 73 265 1.0 2.0 0.00 0.67 0.67 100 1015.0
20260831222102 73 245 0.0 2.0 0.00 0.67 0.67 100 1014.9
20260831221602 73 289 0.0 2.0 0.00 0.67 0.67 99 1015.0
20260831221102 73 213 1.0 2.0 0.00 0.67 0.67 99 1015.0
20260831220602 73 257 0.0 2.0 0.00 0.67 0.67 99 1015.0
20260831215603 72 307 0.0 1.0 0.00 0.67 0.67 99 1015.2
20260831215102 72 291 0.0 2.0 0.00 0.67 0.67 99 1015.1
20260831214602 72 313 2.0 3.0 0.00 0.67 0.67 99 1015.2
20260831214103 72 274 1.0 3.0 0.00 0.67 0.67 99 1015.2
20260831213602 72 267 0.0 2.0 0.00 0.67 0.67 99 1015.1
20260831213102 72 305 0.0 2.0 0.00 0.67 0.67 99 1015.1
20260831212602 72 259 0.0 2.0 0.00 0.67 0.67 100 1015.0
20260831212102 72 245 0.0 3.0 0.00 0.67 0.67 99 1015.1
20260831211602 72 297 1.0 3.0 0.00 0.67 0.67 100 1015.1
20260831211102 72 296 0.0 2.0 0.00 0.67 0.67 99 1015.0
20260831210602 72 312 0.0 2.0 0.00 0.67 0.67 99 1014.9
20260831205602 72 245 0.0 3.0 0.00 0.67 0.67 100 1014.9
20260831205102 72 266 0.0 3.0 0.00 0.67 0.67 100 1014.8
20260831204602 71 231 1.0 3.0 0.00 0.67 0.67 99 1014.8
20260831204103 71 253 0.0 2.0 0.00 0.67 0.67 99 1014.9
20260831203603 71 250 2.0 5.0 0.00 0.67 0.67 99 1014.9
20260831203102 71 296 1.0 3.0 0.01 0.67 0.67 99 1014.9
20260831202602 71 296 1.0 5.0 0.01 0.67 0.67 99 1015.0
20260831195603 71 274 1.0 2.0 0.01 0.67 0.67 100 1015.1
20260831195102 71 251 1.0 3.0 0.02 0.68 0.67 99 1015.0
20260831194602 71 211 1.0 3.0 0.02 0.68 0.67 100 1015.1
20260831194102 71 288 0.0 1.0 0.02 0.69 0.67 99 1015.2
20260831193603 70 282 1.0 2.0 0.02 0.69 0.67 99 1015.3
20260831192103 70 201 0.0 2.0 0.01 0.68 0.66 99 1015.5
20260831191603 70 283 1.0 2.0 0.01 0.68 0.66 99 1015.5
20260831191102 70 272 0.0 3.0 0.01 0.68 0.66 99 1015.5
20260831190603 70 275 1.0 2.0 0.01 0.68 0.66 99 1015.5
20260831184602 70 224 1.0 2.0 0.00 0.67 0.65 99 1015.6
20260831184103 70 268 1.0 3.0 0.00 0.67 0.65 99 1015.6
20260831183602 70 245 1.0 5.0 0.03 0.67 0.65 99 1015.6
20260831182603 70 222 2.0 3.0 0.05 0.67 0.65 99 1015.6
20260831182102 70 231 2.0 3.0 0.06 0.67 0.65 99 1015.7
20260831181102 70 222 0.0 2.0 0.06 0.67 0.65 99 1015.9
20260831180603 70 239 1.0 3.0 0.06 0.67 0.65 99 1015.9
20260831175103 70 245 1.0 2.0 0.06 0.67 0.65 99 1016.0
20260831174602 70 272 0.0 2.0 0.06 0.67 0.65 99 1016.0
20260831174103 70 189 2.0 3.0 0.06 0.67 0.65 99 1016.0
20260831173603 70 235 0.0 1.0 0.03 0.64 0.62 99 1016.2
20260831172603 70 246 0.0 2.0 0.01 0.62 0.60 99 1016.3
20260831172103 70 249 0.0 5.0 0.00 0.61 0.59 99 1016.3
20260831171603 70 284 1.0 3.0 0.01 0.61 0.59 99 1016.2
20260831171102 70 256 1.0 3.0 0.01 0.61 0.59 100 1016.3
20260831170602 70 252 0.0 3.0 0.01 0.61 0.59 100 1016.4
20260831165602 70 212 1.0 3.0 0.01 0.61 0.59 100 1016.5
20260831165102 69 201 1.0 5.0 0.01 0.61 0.59 100 1016.5
20260831164602 69 205 1.0 3.0 0.01 0.61 0.59 100 1016.5
20260831164102 69 189 2.0 3.0 0.01 0.61 0.59 100 1016.5
20260831163602 69 197 1.0 3.0 0.01 0.61 0.59 100 1016.6
20260831163102 68 208 1.0 3.0 0.01 0.61 0.59 99 1016.5
20260831162602 68 235 2.0 7.0 0.01 0.61 0.59 99 1016.5
20260831162102 68 255 2.0 5.0 0.04 0.61 0.59 100 1016.6
20260831161602 68 194 2.0 6.0 0.03 0.60 0.58 100 1016.5
20260831161102 67 197 2.0 6.0 0.03 0.60 0.58 100 1016.7
20260831160602 67 181 2.0 6.0 0.03 0.60 0.58 99 1016.8
20260831155602 67 203 2.0 6.0 0.03 0.60 0.58 99 1017.0
20260831155103 66 207 2.0 3.0 0.03 0.60 0.58 99 1017.0
20260831154602 66 194 3.0 8.0 0.03 0.60 0.58 99 1017.0
20260831153102 66 199 1.0 3.0 0.03 0.60 0.58 99 1017.1
20260831152103 66 235 0.0 2.0 0.00 0.58 0.55 99 1017.2
20260831151602 66 240 1.0 3.0 0.00 0.58 0.55 99 1017.2
20260831151102 66 229 2.0 3.0 0.01 0.58 0.55 99 1017.2
20260831150603 66 186 3.0 3.0 0.01 0.58 0.55 99 1017.1
20260831145603 66 163 2.0 6.0 0.01 0.59 0.55 99 1017.1
20260831145102 66 178 1.0 3.0 0.01 0.59 0.55 99 1017.0
20260831144603 66 165 3.0 8.0 0.02 0.59 0.55 99 1016.9
20260831144102 66 158 3.0 7.0 0.02 0.60 0.55 99 1017.0
20260831143602 66 176 5.0 7.0 0.03 0.60 0.55 99 1016.9
20260831143102 66 171 3.0 7.0 0.03 0.60 0.55 99 1016.9
20260831142103 66 171 2.0 6.0 0.04 0.60 0.55 99 1017.1
20260831141603 66 160 3.0 6.0 0.06 0.60 0.55 99 1017.1
20260831141103 66 169 2.0 3.0 0.07 0.59 0.54 99 1017.1
20260831140602 66 170 2.0 3.0 0.08 0.59 0.54 99 1017.1
20260831135603 66 162 1.0 3.0 0.15 0.59 0.54 99 1017.2
20260831135103 66 184 1.0 3.0 0.18 0.59 0.54 99 1017.2
20260831134603 66 172 1.0 3.0 0.17 0.58 0.53 99 1017.1
20260831134102 66 162 2.0 5.0 0.17 0.58 0.53 99 1017.1
20260831133602 66 170 0.0 2.0 0.17 0.57 0.52 99 1017.1
20260831132604 66 187 1.0 5.0 0.16 0.56 0.51 99 1017.2
20260831132102 66 264 1.0 6.0 0.18 0.56 0.51 99 1017.1
20260831131603 66 215 2.0 5.0 0.17 0.54 0.49 99 1017.1
20260831131103 65 187 3.0 7.0 0.27 0.52 0.47 99 1017.2
20260831130602 66 175 3.0 6.0 0.30 0.51 0.46 99 1017.2
20260831125602 66 194 2.0 3.0 0.24 0.44 0.39 99 1017.3
20260831125102 66 176 1.0 3.0 0.21 0.41 0.36 99 1017.3
20260831124603 65 178 2.0 3.0 0.22 0.41 0.36 99 1017.3
20260831123602 66 157 2.0 3.0 0.24 0.40 0.35 99 1017.3
20260831123102 65 160 1.0 3.0 0.24 0.40 0.35 99 1017.3
20260831122602 66 160 1.0 2.0 0.24 0.40 0.35 99 1017.4
20260831122102 66 157 1.0 3.0 0.22 0.38 0.33 99 1017.4
20260831121603 66 159 2.0 3.0 0.21 0.37 0.32 99 1017.4
20260831121102 66 123 1.0 7.0 0.10 0.25 0.20 99 1017.7
20260831120603 66 53 2.0 7.0 0.06 0.21 0.16 99 1017.9
20260831115603 66 185 1.0 3.0 0.05 0.20 0.15 99 1017.1
20260831115102 66 186 2.0 5.0 0.05 0.20 0.15 99 1017.0
20260831114102 66 257 1.0 2.0 0.01 0.16 0.11 99 1017.1
20260831113603 66 201 0.0 2.0 0.02 0.16 0.11 99 1017.1
20260831113103 66 222 1.0 3.0 0.03 0.16 0.11 99 1017.1
20260831112103 66 234 0.0 2.0 0.03 0.16 0.11 99 1017.1
20260831111603 66 235 0.0 2.0 0.03 0.16 0.11 99 1017.1
20260831111103 66 219 1.0 3.0 0.02 0.15 0.10 99 1017.2
20260831105102 66 203 1.0 2.0 0.02 0.15 0.10 99 1017.2